This is the latest recevied weather packets stored in our database for station/object W4ZHA. If no packets are shown the sender has not sent any weather packets the latest 10 day(s).
| Time | Temp. | Humidity | Pressure | Rain* | Wind** | Luminosity | Snow |
|---|---|---|---|---|---|---|---|
| 1787959165 | 30° C | 57% | 1016.1 hPa | 0 mm | - | 43 W/m² | - |
| 1787958860 | 30.56° C | 57% | 1016.1 hPa | 0 mm | - | 42 W/m² | - |
| 1787958555 | 30.56° C | 56% | 1016.1 hPa | 0 mm | - | 60 W/m² | - |
| 1787958250 | 30.56° C | 55% | 1016.1 hPa | 0 mm | - | 59 W/m² | - |
| 1787957944 | 31.11° C | 55% | 1015.8 hPa | 0 mm | - | 61 W/m² | - |
| 1787957644 | 31.11° C | 54% | 1016.1 hPa | 0 mm | - | 117 W/m² | - |
| 1787957340 | 31.11° C | 52% | 1016.5 hPa | 0 mm | - | 215 W/m² | - |
| 1787957038 | 31.67° C | 47% | 1015.8 hPa | 0 mm | - | 235 W/m² | - |
| 1787956737 | 31.67° C | 48% | 1016.1 hPa | 0 mm | - | 243 W/m² | - |
| 1787956433 | 31.67° C | 47% | 1016.1 hPa | 0 mm | - | 257 W/m² | - |
| 1787956129 | 31.67° C | 50% | 1016.1 hPa | 0 mm | - | 263 W/m² | - |
| 1787955824 | 32.22° C | 46% | 1016.1 hPa | 0 mm | - | 264 W/m² | - |
| 1787955519 | 31.67° C | 46% | 1016.1 hPa | 0 mm | - | 295 W/m² | - |
| 1787955218 | 32.78° C | 45% | 1016.1 hPa | 0 mm | - | 309 W/m² | - |
| 1787954914 | 31.67° C | 45% | 1016.1 hPa | 0 mm | - | 309 W/m² | - |
| 1787954610 | 31.67° C | 47% | 1016.1 hPa | 0 mm | - | 304 W/m² | - |
| 1787954309 | 32.78° C | 45% | 1016.1 hPa | 0 mm | - | 330 W/m² | - |
| 1787954004 | 31.67° C | 47% | 1016.1 hPa | 0 mm | - | 323 W/m² | - |
| 1787953702 | 31.67° C | 46% | 1016.1 hPa | 0 mm | - | 347 W/m² | - |
| 1787953398 | 31.67° C | 45% | 1016.1 hPa | 0 mm | - | 358 W/m² | - |
| 1787953096 | 31.67° C | 48% | 1016.1 hPa | 0 mm | - | 352 W/m² | - |
| 1787952796 | 32.22° C | 47% | 1016.1 hPa | 0 mm | - | 359 W/m² | - |
| 1787952490 | 31.67° C | 49% | 1016.1 hPa | 0 mm | - | 366 W/m² | - |
| 1787952188 | 31.67° C | 47% | 1015.8 hPa | 0 mm | - | 135 W/m² | - |
| 1787951885 | 32.78° C | 46% | 1016.1 hPa | 0 mm | - | 372 W/m² | - |
* Rain latest hour (hover to see other rain measurements)
** Current wind speed in m/s (hover to see current wind gust speed)